User: anonymous   Login
Location: Central Coast NSW, Australia
(33.2407°S, 151.4316°E)
Time: 16:13:22
(UTC+10:00)
Language:

N. Korean satellite - Orbit

View from above orbital plane
View from above orbital plane
View from above satellite
View from above satellite

Ground track
Ground track

The orbit data is extracted from the following two-line orbital elements,

1 39026U 12072A   19115.56198785 +.00001401 +00000-0 +53556-4 0  9992
2 39026 097.2119 120.4688 0036533 294.9669 064.7777 15.27671465353277
Epoch (UTC): 25 April 2019 13:29:15
Eccentricity: 0.0036533
inclination: 97.2119°
perigee height: 458 km
apogee height: 508 km
right ascension of ascending node: 120.4688°
argument of perigee: 294.9669°
revolutions per day: 15.27671465
mean anomaly at epoch: 64.7777°
orbit number at epoch: 35327

The dashed part of the orbit path shows where the satellite is in the earth's shadow,  

DLR